| time (UTC) | temp C | wind direction | speed KPH | gust KPH | rain 1hr cm | rain 24hr cm | rain mn cm | humidity % | barometer mb |
| 20260904070234 | 18 | 230 | 22.5 | 0.0 | 0.00 | 0.00 | 0.00 | 68 | 1018.0 |
| 20260904063231 | 17 | 230 | 14.5 | 0.0 | 0.00 | 0.00 | 0.00 | 72 | 1018.0 |
| 20260904062235 | 17 | 230 | 19.3 | 0.0 | 0.00 | 0.00 | 0.00 | 67 | |
| 20260904060233 | 17 | 230 | 14.5 | 0.0 | 0.00 | 0.00 | 0.00 | 72 | 1018.0 |
| 20260904053224 | 17 | 230 | 16.1 | 0.0 | 0.00 | 0.00 | 0.00 | 72 | 1017.0 |
| 20260904052218 | 17 | 230 | 19.3 | 0.0 | 0.00 | 0.00 | 0.00 | 67 | |
| 20260904050232 | 17 | 230 | 19.3 | 0.0 | 0.00 | 0.00 | 0.00 | 72 | 1017.0 |
| 20260904043224 | 17 | 230 | 16.1 | 0.0 | 0.00 | 0.00 | 0.00 | 72 | 1017.0 |
| 20260904042619 | 17 | 230 | 14.5 | 0.0 | 0.00 | 0.00 | 0.00 | 67 | |
| 20260904040238 | 17 | 230 | 14.5 | 0.0 | 0.00 | 0.00 | 0.00 | 72 | 1017.0 |
| 20260904033224 | 17 | 220 | 20.9 | 0.0 | 0.00 | 0.00 | 0.00 | 72 | 1017.0 |
| 20260904032218 | 17 | 230 | 19.3 | 0.0 | 0.00 | 0.00 | 0.00 | 72 | |
| 20260904030235 | 16 | 230 | 12.9 | 0.0 | 0.00 | 0.00 | 0.00 | 77 | 1018.0 |
| 20260904023224 | 17 | 210 | 14.5 | 0.0 | 0.00 | 0.00 | 0.00 | 67 | 1017.0 |
| 20260904022220 | 17 | 220 | 19.3 | 0.0 | 0.00 | 0.00 | 0.00 | 63 | |
| 20260904020235 | 17 | 220 | 16.1 | 0.0 | 0.00 | 0.00 | 0.00 | 72 | 1017.0 |
| 20260904013223 | 17 | 220 | 24.1 | 0.0 | 0.00 | 0.00 | 0.00 | 67 | 1018.0 |
| 20260904012536 | 18 | 220 | 22.5 | 0.0 | 0.00 | 0.00 | 0.00 | 63 | |
| 20260904010236 | 17 | 220 | 20.9 | 0.0 | 0.00 | 0.00 | 0.00 | 67 | 1018.0 |
| 20260904003223 | 17 | 230 | 22.5 | 0.0 | 0.00 | 0.00 | 0.00 | 67 | 1018.0 |
| 20260904002235 | 18 | 230 | 22.5 | 0.0 | 0.00 | 0.00 | 0.00 | 63 | |
| 20260904000235 | 17 | 220 | 20.9 | 0.0 | 0.00 | 0.00 | 0.00 | 67 | 1018.0 |
| 20260903233224 | 18 | 230 | 19.3 | 0.0 | 0.00 | 0.00 | 0.00 | 63 | 1018.0 |
| 20260903232235 | 18 | 220 | 22.5 | 0.0 | 0.00 | 0.00 | 0.00 | 59 | |
| 20260903230237 | 17 | 220 | 20.9 | 0.0 | 0.00 | 0.00 | 0.00 | 67 | 1018.0 |
| 20260903223223 | 17 | 220 | 14.5 | 0.0 | 0.00 | 0.00 | 0.00 | 67 | 1018.0 |
| 20260903222635 | 17 | 230 | 11.3 | 0.0 | 0.00 | 0.00 | 0.00 | 72 | |
| 20260903220236 | 17 | 230 | 9.7 | 0.0 | 0.00 | 0.00 | 0.00 | 72 | 1018.0 |
| 20260903213224 | 17 | 250 | 9.7 | 0.0 | 0.00 | 0.00 | 0.00 | 72 | 1018.0 |
| 20260903212235 | 17 | 250 | 8.0 | 0.0 | 0.00 | 0.00 | 0.00 | 67 | |
| 20260903210236 | 17 | 240 | 9.7 | 0.0 | 0.00 | 0.00 | 0.00 | 72 | 1018.0 |
| 20260903203224 | 17 | 180 | 11.3 | 0.0 | 0.00 | 0.00 | 0.00 | 67 | 1018.0 |
| 20260903202235 | 18 | 180 | 11.3 | 0.0 | 0.00 | 0.00 | 0.00 | 63 | |
| 20260903200235 | 18 | 190 | 12.9 | 0.0 | 0.00 | 0.00 | 0.00 | 63 | 1018.0 |
| 20260903193224 | 18 | 180 | 9.7 | 0.0 | 0.00 | 0.00 | 0.00 | 63 | 1018.0 |
| 20260903192436 | 20 | 200 | 8.0 | 0.0 | 0.00 | 0.00 | 0.00 | 56 | |
| 20260903190238 | 18 | 210 | 9.7 | 0.0 | 0.00 | 0.00 | 0.00 | 59 | 1018.0 |
| 20260903183231 | 20 | 220 | 9.7 | 0.0 | 0.00 | 0.00 | 0.00 | 56 | 1018.0 |
| 20260903182235 | 20 | 230 | 8.0 | 0.0 | 0.00 | 0.00 | 0.00 | 56 | |
| 20260903180236 | 20 | 240 | 8.0 | 0.0 | 0.00 | 0.00 | 0.00 | 56 | 1018.0 |
| 20260903173230 | 21 | 270 | 9.7 | 0.0 | 0.00 | 0.00 | 0.00 | 52 | 1018.0 |
| 20260903172248 | 21 | 240 | 11.3 | 0.0 | 0.00 | 0.00 | 0.00 | 52 | |
| 20260903170235 | 20 | 250 | 9.7 | 0.0 | 0.00 | 0.00 | 0.00 | 52 | 1018.0 |
| 20260903163231 | 22 | 270 | 12.9 | 0.0 | 0.00 | 0.00 | 0.00 | 46 | 1018.0 |
| 20260903162529 | 22 | 260 | 14.5 | 0.0 | 0.00 | 0.00 | 0.00 | 40 | |
| 20260903160235 | 22 | 260 | 14.5 | 0.0 | 0.00 | 0.00 | 0.00 | 43 | 1018.0 |
| 20260903153230 | 23 | 260 | 14.5 | 0.0 | 0.00 | 0.00 | 0.00 | 41 | 1018.0 |
| 20260903152237 | 22 | 260 | 19.3 | 0.0 | 0.00 | 0.00 | 0.00 | 46 | |
| 20260903150233 | 22 | 260 | 16.1 | 0.0 | 0.00 | 0.00 | 0.00 | 43 | 1018.0 |
| 20260903143231 | 22 | 240 | 16.1 | 0.0 | 0.00 | 0.00 | 0.00 | 49 | 1018.0 |
| 20260903142206 | 22 | 260 | 19.3 | 0.0 | 0.00 | 0.00 | 0.00 | 46 | |
| 20260903140235 | 23 | 260 | 19.3 | 0.0 | 0.00 | 0.00 | 0.00 | 38 | 1018.0 |
| 20260903133231 | 23 | 260 | 11.3 | 0.0 | 0.00 | 0.00 | 0.00 | 44 | 1018.0 |
| 20260903132405 | 23 | 0 | 8.0 | 0.0 | 0.00 | 0.00 | 0.00 | 41 | |
| 20260903130236 | 23 | 310 | 9.7 | 0.0 | 0.00 | 0.00 | 0.00 | 41 | 1018.0 |
| 20260903123231 | 22 | 350 | 4.8 | 0.0 | 0.00 | 0.00 | 0.00 | 49 | 1018.0 |
| 20260903122204 | 22 | 360 | 11.3 | 0.0 | 0.00 | 0.00 | 0.00 | 49 | |
| 20260903120234 | 22 | 360 | 9.7 | 0.0 | 0.00 | 0.00 | 0.00 | 53 | 1019.0 |
| 20260903113231 | 22 | 240 | 19.3 | 0.0 | 0.00 | 0.00 | 0.00 | 49 | 1018.0 |
| 20260903112155 | 22 | 220 | 19.3 | 0.0 | 0.00 | 0.00 | 0.00 | 53 | |
| 20260903110234 | 22 | 220 | 20.9 | 0.0 | 0.00 | 0.00 | 0.00 | 49 | 1019.0 |
| 20260903103224 | 22 | 210 | 20.9 | 0.0 | 0.00 | 0.00 | 0.00 | 49 | 1019.0 |
| 20260903102558 | 22 | 200 | 19.3 | 0.0 | 0.00 | 0.00 | 0.00 | 49 | |
| 20260903100232 | 22 | 190 | 16.1 | 0.0 | 0.00 | 0.00 | 0.00 | 49 | 1019.0 |
| 20260903093231 | 22 | 200 | 16.1 | 0.0 | 0.00 | 0.00 | 0.00 | 56 | 1019.0 |
| 20260903092157 | 22 | 220 | 14.5 | 0.0 | 0.00 | 0.00 | 0.00 | 53 | |
| 20260903090233 | 22 | 230 | 14.5 | 0.0 | 0.00 | 0.00 | 0.00 | 53 | 1020.0 |
| 20260903083231 | 21 | 0 | 8.0 | 0.0 | 0.00 | 0.00 | 0.00 | 60 | 1020.0 |
| 20260903082155 | 20 | 0 | 11.3 | 0.0 | 0.00 | 0.00 | 0.00 | 64 | |
| 20260903080239 | 18 | 250 | 8.0 | 0.0 | 0.00 | 0.00 | 0.00 | 63 | 1020.0 |
| 20260903073231 | 17 | 240 | 8.0 | 0.0 | 0.00 | 0.00 | 0.00 | 72 | 1020.0 |
| 20260903072356 | 17 | 0 | 3.2 | 0.0 | 0.00 | 0.00 | 0.00 | 72 |